Hyannis, MA

11:40 PM EST on February 12, 2016 (GMT -0500)
Barnstable Municipal-Boardman-Polando Field

Weather History for KHYA - November, 2010

Change the Weather History Date:

Saturday, November 27, 2010

  Actual Average Record
Temperature  
Mean Temperature 39 °F -  
Max Temperature 43 °F 50 °F 66 °F (1964)
Min Temperature 34 °F 32 °F 17 °F (1949)
Degree Days  
Heating Degree Days 26    
Moisture  
Dew Point 23 °F    
Average Humidity 55    
Maximum Humidity 76    
Minimum Humidity 38    
Precipitation  
Precipitation 0.00 in - - ()
Sea Level Pressure  
Sea Level Pressure 29.70 in    
Wind  
Wind Speed 7 mph (West)    
Max Wind Speed 15 mph    
Max Gust Speed 23 mph    
Visibility 10 miles    
Events      
Averages and records for this station are not official NWS values.
T = Trace of Precipitation, MM = Missing Value Source: NWS Daily Summary

Daily Weather History Graph

Daily Weather History Graph

Search for Another Location

Airport or City:

Trip Planner

Search our weather history database for the weather conditions in past years. The results will help you decide how hot, cold, wet, or windy it might be!

Date:

Astronomy

Nov. 27, 2010 Rise Set
Actual Time 6:44 AM EST 4:13 PM EST
Civil Twilight 6:13 AM EST 4:43 PM EST
Nautical Twilight 5:39 AM EST 5:18 PM EST
Astronomical Twilight 5:05 AM EST 5:51 PM EST
Moon 10:31 PM EST (11/27) 11:19 AM EST (11/27)
Length of Visible Light 10h 30m
Length of Day
9h 28m
Waning Gibbous, 63% of the Moon is Illuminated
Nov 27
Waning Gibbous
Nov 28
Last Quarter
Dec 5
New
Dec 13
First Quarter
Dec 21
Full

Hourly Weather History & Observations

Time (EST) Temp. Windchill Dew Point Humidity Pressure Visibility Wind Dir Wind Speed Gust Speed Precip Events Conditions
12:56 AM 37.0 °F 29.8 °F 21.9 °F 54% 29.62 in 10.0 mi NNW 10.4 mph - N/A   Scattered Clouds
1:56 AM 37.9 °F 33.5 °F 21.9 °F 53% 29.63 in 10.0 mi NNW 5.8 mph - N/A   Overcast
2:56 AM 37.9 °F 35.5 °F 24.1 °F 57% 29.62 in 10.0 mi NNW 3.5 mph - N/A   Overcast
3:56 AM 36.0 °F - 24.1 °F 62% 29.59 in 10.0 mi Calm Calm - N/A   Overcast
4:56 AM 35.1 °F - 26.1 °F 70% 29.61 in 10.0 mi Calm Calm - N/A   Overcast
5:56 AM 35.1 °F 32.2 °F 26.1 °F 70% 29.62 in 10.0 mi West 3.5 mph - N/A   Overcast
6:56 AM 35.1 °F - 27.0 °F 72% 29.62 in 10.0 mi Calm Calm - N/A   Overcast
7:56 AM 36.0 °F - 28.9 °F 76% 29.62 in 10.0 mi Calm Calm - 0.00 in   Overcast
8:56 AM 37.9 °F - 26.1 °F 62% 29.62 in 10.0 mi Calm Calm - N/A   Overcast
9:56 AM 39.0 °F 32.3 °F 25.0 °F 57% 29.64 in 10.0 mi West 10.4 mph - N/A   Overcast
10:56 AM 41.0 °F 35.2 °F 25.0 °F 53% 29.62 in 10.0 mi West 9.2 mph - N/A   Mostly Cloudy
11:56 AM 43.0 °F 36.0 °F 21.9 °F 43% 29.60 in 10.0 mi WSW 13.8 mph 21.9 mph N/A   Clear
1:56 PM 43.0 °F 35.7 °F 19.0 °F 38% 29.63 in 10.0 mi West 15.0 mph 23.0 mph N/A   Scattered Clouds
3:56 PM 39.9 °F 32.9 °F 19.0 °F 43% 29.68 in 10.0 mi West 11.5 mph 17.3 mph N/A   Clear
4:56 PM 39.0 °F 34.8 °F 19.0 °F 45% 29.72 in 10.0 mi West 5.8 mph - N/A   Clear
5:56 PM 39.0 °F 32.3 °F 19.9 °F 46% 29.75 in 10.0 mi West 10.4 mph - N/A   Clear
6:56 PM 39.0 °F 31.8 °F 21.0 °F 49% 29.78 in 10.0 mi West 11.5 mph - N/A   Mostly Cloudy
7:56 PM 39.0 °F 33.4 °F 21.9 °F 50% 29.82 in 10.0 mi West 8.1 mph 18.4 mph N/A   Mostly Cloudy
8:56 PM 37.9 °F 33.5 °F 21.9 °F 53% 29.85 in 10.0 mi WNW 5.8 mph - N/A   Partly Cloudy
9:56 PM 36.0 °F 29.6 °F 21.0 °F 55% 29.89 in 10.0 mi West 8.1 mph - N/A   Clear
10:56 PM 36.0 °F 29.6 °F 21.0 °F 55% 29.93 in 10.0 mi West 8.1 mph - N/A   Overcast
11:56 PM 34.0 °F 28.0 °F 19.9 °F 56% 29.96 in 10.0 mi WNW 6.9 mph - N/A   Clear